Tracking 27112 objects as of 26-Mar-2023
HD Live streaming from Space Station
objects crossing your sky now

STARLINK-2010

Track STARLINK-2010 now!
10-day predictions
STARLINK-2010 is classified as:


NORAD ID: 47634
Int'l Code: 2021-012Q
Perigee: 553.7 km
Apogee: 555.5 km
Inclination: 53.1 °
Period: 95.6 minutes
Semi major axis: 6925 km
RCS: Unknown
Launch date: February 16, 2021
Source: United States (US)
Launch site: AIR FORCE EASTERN TEST RANGE (AFETR)
Your satellite tracking list
Your tracking list is empty




NASA's NSSDC Master Catalog

Two Line Element Set (TLE):
1 47634U 21012Q   23084.74089141  .00025028  00000-0  16971-2 0  9994
2 47634  53.0524 239.6979 0001350  48.5605 311.5499 15.06313758117209
Source of the keplerian elements: AFSPC